Back to catalog

STARLINK-34040

AliveCommunicationsVLEO
NORAD 63839·PAYLOAD·🇺🇸 United States

Launched May 7, 2025 from Cape Canaveral Space Force Station

Loading…

Next Passes (next 24 hours)

TLE

FreshSource: CelesTrak SupGP

Epoch: Sep 14, 2026, 15:31 UTC

1 63839C 25093D   26257.64701389 -.00028115  00000+0 -10182-2 0  2577
2 63839  43.0030  90.6995 0001389 262.6672  24.5028 15.27597322    16

Track STARLINK-34040 in real time with AllMySat

Download on the App Store